Wind_Speed
8 7 7 7 7 7 7 6 6 6 5 4 4 4 3 3 3 2 2 2 2 2 3 3 3 3 3 3 3 3 3 2 2 3 3 4 5 6 7 8 8 8 9
7 7 7 7 8 7 7 7 6 5 5 4 4 3 3 3 4 3 3 3 3 3 4 4 4 4 4 4 4 4 4 4 4 4 4 5 6 6 7 8 7 7 9
8 8 8 8 8 7 7 7 6 5 5 4 4 3 3 4 4 4 3 4 4 4 5 4 5 5 5 5 5 5 5 5 5 6 6 6 7 7 6 7 8 8 9
8 8 8 8 8 7 7 6 6 6 5 5 4 4 4 5 5 4 4 5 5 5 5 6 6 6 6 6 5 6 6 6 6 7 7 8 7 7 7 7 7 8 9
8 8 8 8 8 7 7 6 7 7 6 6 6 6 6 5 5 6 6 5 5 6 5 6 7 7 7 7 7 7 7 7 7 7 7 7 7 7 6 6 7 7 8
8 8 7 7 8 8 7 6 7 7 7 6 7 7 7 7 7 6 6 6 6 6 7 7 7 7 8 8 8 8 8 8 8 8 8 8 8 8 8 7 7 7 7
8 8 7 7 8 7 7 7 7 8 7 7 6 6 7 7 7 7 7 7 7 8 8 8 9 8 8 8 9 9 9 9 9 9 9 9 9 9 9 8 8 8 8
8 8 8 8 8 8 7 7 8 7 7 7 7 7 7 7 8 8 8 9 9 9 9 9 10 9 9 9 9 10 10 10 10 10 9 9 10 10 11 10 10 10 9
8 8 8 9 9 8 7 7 7 8 8 7 7 7 7 8 8 9 10 10 10 10 10 10 10 11 10 10 10 11 11 11 11 11 11 10 11 11 12 12 11 11 11
9 9 9 9 9 8 7 7 7 8 8 8 8 8 9 9 9 10 11 11 11 11 12 11 10 11 12 12 12 12 12 12 12 12 12 12 12 13 13 13 13 13 13
10 10 10 10 9 8 8 7 7 8 8 9 9 10 10 10 10 11 12 12 12 12 12 12 12 12 12 13 13 13 13 14 13 14 14 13 13 14 15 15 14 15 14
11 10 10 10 9 9 8 8 8 9 9 10 10 10 10 10 11 11 12 12 13 13 13 13 13 13 13 13 14 14 14 14 14 14 15 14 14 15 16 16 15 15 15
11 11 10 10 10 9 9 8 9 10 10 10 11 11 11 11 11 12 13 13 14 14 13 13 13 13 14 14 14 15 15 15 14 15 15 15 15 16 16 17 17 17 17
10 10 11 11 11 10 10 9 9 10 11 11 11 11 11 12 12 12 13 13 13 14 14 14 14 14 14 15 15 15 15 15 14 14 15 16 17 17 17 19 19 18 18
10 11 11 10 10 10 10 10 11 12 11 11 11 11 11 12 12 12 13 13 14 14 14 14 15 15 15 16 16 15 16 16 16 15 16 16 17 18 18 19 20 19 19
11 12 11 11 11 11 10 10 11 12 12 11 12 12 12 12 12 13 13 13 14 15 15 14 15 15 15 16 16 17 17 17 17 16 16 17 18 19 19 20 21 20 20
11 12 11 11 11 10 10 10 11 11 12 12 12 12 12 12 13 13 13 14 14 15 15 15 15 16 16 16 17 18 18 18 18 18 17 17 18 19 20 21 22 22 23
10 11 10 11 10 10 10 10 11 11 12 12 12 13 13 13 13 13 13 14 15 15 15 16 16 16 16 17 18 18 19 19 19 19 18 18 18 19 20 20 22 23 24
8 9 10 10 10 9 10 10 11 11 11 11 12 13 13 13 13 13 13 14 14 14 15 16 17 17 18 18 18 19 19 19 19 20 20 19 19 20 20 21 21 23 23
8 9 10 9 9 9 10 10 11 11 12 12 13 13 14 14 14 13 13 14 15 15 16 16 17 18 19 19 19 19 19 20 20 20 21 21 21 20 21 22 22 23 24
10 10 10 9 9 9 10 10 10 11 12 13 14 14 15 15 15 15 15 15 16 16 17 17 17 18 18 18 19 20 20 20 21 21 21 21 22 22 22 23 23 23 24
10 10 10 10 10 10 10 10 11 12 13 14 14 14 15 15 15 15 15 16 16 16 17 18 19 18 18 19 19 20 21 21 21 21 21 22 22 22 22 23 24 24 25
9 9 9 9 10 10 10 11 12 13 14 14 15 15 15 15 15 15 16 16 16 17 17 18 19 19 19 19 19 20 20 20 20 21 21 22 22 22 23 23 24 25 25
10 10 10 11 11 12 12 13 13 14 14 15 15 16 16 16 16 17 17 17 17 17 18 18 19 19 19 19 20 20 20 21 20 20 21 22 22 22 22 24 25 26 26
11 11 11 12 12 13 13 14 15 15 15 15 15 16 16 17 17 17 18 18 18 17 18 18 19 19 19 19 20 20 21 20 20 20 21 21 22 22 23 23 25 25 26
12 13 13 12 12 13 14 15 15 16 16 16 16 17 17 18 17 17 18 19 18 18 18 17 18 19 19 20 20 21 21 21 20 21 21 21 22 22 23 23 25 25 26
Wind_Direction
354 354 353 356 358 358 358 355 351 347 346 344 337 328 318 318 321 315 309 303 289 286 273 267 261 255 249 241 236 241 240 241 219 216 227 224 216 210 205 206 202 199 197
346 347 347 349 352 354 357 353 346 340 338 337 331 331 310 302 306 302 283 282 278 267 262 260 255 259 251 239 235 240 244 242 234 226 227 227 221 216 210 207 208 204 203
340 338 338 343 347 351 353 351 342 335 330 329 329 323 311 300 299 292 280 272 269 269 261 258 249 250 248 243 240 245 243 241 238 234 232 227 226 224 216 213 215 213 212
336 333 332 336 340 344 347 346 338 330 323 317 313 310 303 294 292 288 278 269 263 263 259 252 250 248 252 252 249 249 246 244 239 237 234 235 237 233 223 218 220 217 218
328 328 329 334 336 339 344 345 337 328 319 313 307 303 299 289 281 280 274 264 260 259 257 250 248 254 254 255 254 252 249 247 246 244 242 239 238 232 224 226 227 220 217
323 324 325 333 334 331 334 336 334 327 316 308 306 302 296 288 276 272 268 262 260 260 261 259 256 255 254 256 255 254 250 250 249 246 242 236 232 230 228 232 233 227 223
321 322 320 330 331 324 325 325 327 321 311 303 303 301 294 285 276 273 269 264 259 258 261 261 258 254 255 258 259 257 255 253 251 249 247 239 234 232 231 233 232 231 228
322 321 320 324 325 320 318 317 323 321 315 304 300 299 295 290 281 276 273 267 262 257 259 262 258 260 260 260 258 257 256 255 253 249 248 243 238 235 234 233 231 233 233
325 323 324 324 320 313 311 317 321 319 315 307 301 299 294 289 284 278 273 271 265 267 264 264 262 262 262 262 261 260 257 256 254 251 251 247 244 240 237 235 234 235 235
321 319 319 318 315 309 307 314 317 316 312 309 303 297 293 288 285 279 274 268 267 268 270 269 265 261 261 261 260 261 257 254 255 254 252 249 246 243 241 239 240 240 237
315 317 317 316 315 305 303 308 311 311 312 310 303 298 294 290 285 280 276 271 269 270 271 269 267 261 260 259 261 262 260 257 255 255 253 252 249 247 246 243 244 244 241
311 313 316 315 314 307 298 299 307 311 311 309 305 300 294 289 285 280 276 273 270 269 269 268 266 264 263 260 259 261 261 258 257 256 253 252 251 251 248 248 247 246 242
306 307 312 314 313 312 303 300 304 309 309 309 305 300 293 286 282 279 275 272 268 267 266 266 265 264 266 265 263 260 258 258 257 256 254 252 252 252 251 251 250 247 244
305 307 309 312 314 311 310 305 304 308 310 312 309 302 291 285 282 276 271 269 267 267 267 266 265 265 265 265 264 262 259 256 257 256 255 255 253 253 251 250 252 249 245
304 304 305 310 312 308 309 308 306 308 307 309 310 305 296 289 283 279 274 268 268 268 269 268 268 267 266 264 263 261 261 258 258 261 261 258 256 255 254 253 253 249 246
299 300 302 301 301 299 300 303 302 304 304 305 309 307 300 296 290 282 277 272 270 270 270 268 267 266 264 263 260 259 260 259 260 262 263 260 258 258 257 255 254 251 249
297 298 301 302 297 293 293 295 299 301 301 303 306 309 306 300 292 285 277 274 271 271 270 267 264 266 265 264 262 261 260 259 260 262 262 261 259 259 259 256 252 254 254
299 299 301 302 296 290 287 290 296 298 299 300 303 304 306 301 296 288 282 278 274 273 269 267 265 265 265 265 263 262 261 260 261 262 261 260 260 260 260 259 253 252 254
302 303 304 299 294 289 289 291 295 297 298 301 303 304 306 302 296 292 285 279 277 274 270 268 266 266 266 264 264 261 261 262 262 262 261 260 261 261 260 259 259 255 253
303 304 303 300 295 290 289 289 292 297 300 303 304 303 306 303 298 291 287 281 278 274 271 269 268 267 265 261 262 261 262 262 262 262 262 262 262 260 260 260 261 260 259
303 302 301 299 295 289 288 288 291 295 298 299 302 304 304 302 299 292 287 283 280 277 274 271 270 267 265 262 262 262 261 261 263 263 263 262 262 261 260 261 262 262 262
304 301 300 297 291 287 286 288 290 293 296 299 301 301 302 301 298 295 290 286 283 279 276 272 269 269 266 265 264 265 264 264 264 265 265 265 265 264 264 262 263 263 262
304 301 298 295 290 290 291 292 293 293 296 298 300 302 303 302 299 296 295 290 287 283 278 273 271 269 268 268 267 267 266 267 268 267 268 269 267 265 264 264 263 263 263
300 298 297 297 296 296 298 299 299 299 298 299 299 300 299 299 299 297 294 295 292 286 280 276 274 271 270 271 269 269 269 267 267 266 268 270 269 266 265 265 265 265 264
299 300 298 298 299 300 300 299 298 298 297 295 295 297 298 299 298 297 295 293 292 290 284 279 278 275 273 273 272 271 269 268 267 267 267 268 269 267 267 267 267 267 266
296 298 298 297 298 300 299 299 300 297 295 295 294 296 297 296 296 296 295 292 290 286 284 283 281 278 275 274 273 272 270 268 268 267 267 266 269 270 269 268 268 268 268
Height
5870 5869 5868 5867 5867 5866 5865 5864 5864 5863 5863 5863 5863 5863 5863 5864 5864 5865 5865 5866 5866 5867 5868 5868 5869 5870 5871 5871 5872 5873 5873 5874 5875 5875 5876 5876 5877 5877 5878 5879 5879 5881 5882
5869 5868 5867 5867 5866 5865 5864 5864 5863 5863 5862 5862 5862 5862 5862 5863 5863 5864 5864 5865 5865 5866 5867 5868 5869 5869 5870 5871 5872 5872 5873 5873 5874 5875 5875 5875 5876 5877 5878 5878 5879 5880 5882
5868 5867 5866 5866 5865 5864 5863 5863 5862 5862 5862 5861 5862 5862 5862 5862 5862 5863 5864 5864 5865 5865 5865 5866 5868 5868 5869 5870 5871 5872 5872 5873 5874 5874 5875 5875 5876 5876 5877 5878 5879 5880 5881
5867 5866 5866 5865 5864 5863 5862 5862 5862 5861 5861 5860 5860 5861 5861 5861 5861 5862 5862 5863 5863 5864 5864 5865 5866 5867 5868 5869 5870 5871 5871 5872 5873 5873 5874 5875 5875 5876 5877 5878 5878 5879 5880
5866 5865 5864 5864 5863 5862 5862 5861 5861 5860 5860 5859 5859 5859 5859 5859 5860 5861 5861 5862 5862 5863 5863 5864 5865 5866 5867 5868 5869 5869 5870 5871 5872 5872 5873 5873 5874 5875 5876 5877 5878 5879 5879
5865 5864 5863 5863 5862 5861 5861 5860 5859 5859 5858 5858 5858 5858 5858 5858 5858 5859 5859 5860 5861 5862 5862 5863 5864 5864 5865 5866 5867 5868 5868 5869 5870 5871 5871 5872 5873 5874 5875 5876 5877 5878 5879
5863 5863 5862 5861 5861 5860 5859 5858 5858 5858 5857 5857 5857 5856 5856 5856 5857 5857 5858 5858 5859 5860 5861 5861 5862 5863 5864 5865 5865 5866 5867 5867 5868 5869 5870 5870 5871 5872 5874 5874 5875 5877 5878
5862 5862 5861 5860 5859 5859 5858 5857 5857 5856 5856 5855 5855 5855 5855 5855 5855 5856 5856 5857 5857 5858 5859 5860 5860 5861 5862 5863 5864 5864 5865 5866 5867 5867 5868 5869 5870 5871 5872 5873 5874 5876 5877
5861 5860 5860 5859 5858 5857 5857 5856 5856 5855 5855 5854 5854 5854 5854 5854 5854 5854 5855 5855 5856 5856 5857 5858 5858 5859 5860 5861 5862 5862 5863 5864 5864 5865 5866 5867 5868 5869 5871 5872 5873 5874 5875
5860 5859 5858 5857 5856 5856 5855 5855 5854 5854 5853 5853 5853 5852 5852 5852 5852 5852 5852 5853 5853 5854 5855 5855 5856 5857 5857 5858 5859 5860 5861 5861 5862 5863 5864 5865 5866 5867 5868 5870 5871 5872 5873
5858 5857 5857 5856 5855 5854 5854 5853 5852 5852 5851 5851 5851 5850 5850 5850 5850 5850 5850 5850 5851 5852 5852 5853 5854 5854 5855 5856 5856 5857 5858 5859 5859 5860 5861 5862 5863 5865 5866 5867 5869 5870 5871
5857 5856 5855 5854 5854 5853 5852 5851 5851 5850 5850 5849 5848 5848 5848 5847 5847 5847 5847 5848 5848 5849 5850 5850 5851 5852 5852 5853 5853 5854 5855 5856 5857 5858 5859 5860 5861 5862 5863 5865 5866 5867 5868
5855 5854 5854 5853 5852 5851 5850 5850 5849 5848 5848 5847 5846 5845 5845 5845 5844 5844 5844 5845 5845 5846 5847 5847 5848 5848 5849 5850 5850 5851 5852 5853 5854 5855 5855 5857 5858 5859 5860 5861 5863 5864 5865
5853 5852 5852 5851 5850 5849 5848 5848 5847 5847 5846 5845 5844 5843 5842 5842 5842 5842 5841 5842 5842 5843 5843 5844 5845 5845 5846 5846 5847 5848 5849 5850 5850 5851 5852 5853 5854 5855 5856 5858 5859 5860 5861
5851 5850 5850 5849 5848 5847 5847 5846 5846 5845 5844 5843 5842 5840 5840 5839 5839 5839 5839 5839 5839 5840 5840 5841 5841 5842 5842 5843 5843 5844 5845 5846 5846 5847 5848 5849 5850 5851 5852 5853 5854 5856 5857
5848 5848 5847 5847 5846 5845 5845 5844 5843 5842 5841 5840 5840 5838 5837 5837 5836 5836 5836 5836 5836 5836 5836 5837 5838 5838 5839 5839 5840 5841 5841 5842 5843 5843 5844 5845 5846 5847 5848 5849 5850 5851 5853
5846 5846 5845 5844 5844 5843 5843 5842 5841 5840 5839 5838 5837 5836 5835 5835 5834 5833 5833 5833 5833 5832 5833 5833 5834 5834 5835 5836 5836 5837 5837 5838 5838 5839 5840 5841 5841 5842 5843 5844 5845 5846 5848
5844 5844 5843 5842 5841 5841 5840 5840 5839 5838 5837 5836 5835 5834 5833 5832 5831 5830 5830 5830 5829 5829 5829 5829 5830 5830 5831 5831 5832 5832 5833 5833 5834 5835 5836 5836 5837 5838 5838 5839 5840 5841 5842
5842 5842 5841 5840 5839 5838 5837 5837 5836 5836 5835 5834 5833 5832 5831 5829 5828 5827 5827 5826 5826 5825 5825 5825 5826 5826 5826 5827 5827 5827 5828 5829 5829 5830 5830 5831 5832 5833 5833 5834 5835 5836 5837
5840 5839 5839 5837 5836 5835 5835 5834 5834 5833 5832 5831 5830 5829 5827 5826 5825 5824 5823 5823 5822 5822 5821 5821 5821 5821 5821 5822 5822 5822 5823 5824 5824 5825 5825 5826 5827 5828 5828 5829 5829 5830 5831
5838 5837 5836 5835 5834 5833 5833 5832 5831 5830 5829 5828 5827 5826 5824 5823 5822 5821 5820 5819 5818 5818 5817 5817 5817 5817 5817 5817 5817 5817 5818 5819 5819 5819 5820 5820 5821 5822 5823 5823 5824 5824 5825
5836 5834 5833 5832 5832 5831 5830 5829 5828 5827 5826 5825 5824 5823 5821 5820 5818 5817 5816 5815 5814 5813 5813 5812 5812 5812 5812 5812 5812 5812 5813 5813 5813 5814 5814 5814 5815 5816 5816 5817 5818 5818 5818
5834 5832 5831 5830 5829 5828 5828 5827 5825 5824 5823 5822 5821 5819 5818 5816 5815 5813 5812 5811 5810 5809 5808 5807 5807 5806 5806 5806 5807 5807 5807 5808 5807 5808 5808 5809 5809 5810 5810 5811 5811 5812 5812
5832 5830 5829 5828 5827 5825 5824 5823 5822 5821 5820 5819 5817 5815 5814 5812 5810 5809 5807 5806 5805 5804 5803 5802 5801 5801 5801 5801 5801 5801 5802 5802 5802 5802 5803 5803 5803 5803 5804 5804 5805 5805 5806
5829 5828 5826 5825 5823 5822 5821 5819 5818 5816 5815 5814 5813 5811 5809 5808 5806 5804 5803 5801 5800 5799 5798 5797 5796 5796 5795 5795 5795 5796 5796 5796 5796 5796 5797 5797 5797 5797 5798 5798 5798 5799 5799
5826 5825 5823 5822 5820 5819 5817 5816 5814 5812 5810 5809 5808 5807 5805 5803 5801 5800 5798 5796 5795 5793 5792 5791 5791 5790 5790 5790 5790 5790 5790 5790 5790 5790 5791 5791 5791 5791 5791 5791 5792 5792 5792